DW4236 Weather Reports


time (UTC)temp
C
wind
direction
speed
KPH
gust
KPH
rain 1hr
cm
rain 24hr
cm
rain mn
cm
humidity
%
barometer
mb
20260508014604 9 45 0.0 0.0 0.00 0.10 0.10 67 1010.7
20260508013104 10 45 0.0 1.6 0.00 0.10 0.10 63 1010.5
20260508012604 10 45 0.0 0.0 0.00 0.10 0.10 64 1010.5
20260508012104 10 45 0.0 0.0 0.00 0.10 0.10 63 1010.5
20260508011604 10 45 0.0 0.0 0.00 0.10 0.10 62 1010.6
20260508011104 10 45 0.0 0.0 0.00 0.10 0.10 62 1010.5
20260508010104 10 45 0.0 0.0 0.00 0.10 0.10 60 1010.4
20260508005605 10 45 0.0 0.0 0.00 0.10 0.10 61 1010.3
20260508005103 11 45 0.0 0.0 0.00 0.10 0.10 60 1010.2
20260508004605 11 45 0.0 0.0 0.00 0.10 0.10 59 1010.3
20260508004104 11 45 0.0 0.0 0.00 0.10 0.10 58 1010.3
20260508003604 11 45 0.0 0.0 0.00 0.10 0.10 56 1010.1
20260508002605 11 45 0.0 0.0 0.00 0.10 0.10 55 1010.0
20260508001104 12 45 0.0 3.2 0.00 0.10 0.10 51 1009.9
20260508000104 13 18 0.0 1.6 0.00 0.10 0.10 49 1009.7
20260507235604 13 18 0.0 1.6 0.00 0.10 0.10 48 1009.7
20260507234603 13 18 0.0 0.0 0.00 0.10 0.10 45 1009.8
20260507234104 14 18 0.0 0.0 0.00 0.10 0.10 45 1009.7
20260507233603 14 18 0.0 3.2 0.00 0.10 0.10 42 1009.6
20260507233103 14 18 1.6 4.8 0.00 0.10 0.10 42 1009.7
20260507232604 15 26 0.0 4.8 0.00 0.10 0.10 42 1009.5
20260507232104 15 25 3.2 8.0 0.00 0.10 0.10 40 1009.3
20260507231604 15 40 3.2 8.0 0.00 0.10 0.10 40 1009.3
20260507231104 15 97 4.8 16.1 0.00 0.10 0.10 39 1009.3
20260507230604 15 38 3.2 14.5 0.00 0.10 0.10 40 1009.4
20260507230104 15 15 3.2 14.5 0.00 0.10 0.10 39 1009.3
20260507225604 15 53 3.2 19.3 0.00 0.10 0.10 39 1009.3
20260507225104 15 37 4.8 19.3 0.00 0.10 0.10 38 1009.3
20260507224603 15 13 4.8 12.9 0.00 0.10 0.10 39 1009.2
20260507224105 15 325 3.2 8.0 0.00 0.10 0.10 39 1009.4
20260507223603 15 358 3.2 16.1 0.00 0.10 0.10 38 1009.3
20260507222604 15 8 3.2 14.5 0.00 0.10 0.10 39 1009.5
20260507222104 16 348 3.2 14.5 0.00 0.10 0.10 39 1009.5
20260507221104 16 16 11.3 24.1 0.00 0.10 0.10 37 1009.4
20260507220603 16 22 3.2 12.9 0.00 0.10 0.10 40 1009.4
20260507220104 16 346 4.8 16.1 0.00 0.10 0.10 39 1009.4
20260507215604 16 30 3.2 14.5 0.00 0.10 0.10 40 1009.5
20260507215104 16 25 4.8 12.9 0.00 0.10 0.10 38 1009.5
20260507214604 16 15 3.2 14.5 0.00 0.10 0.10 39 1009.6
20260507213604 16 329 4.8 9.7 0.00 0.10 0.10 38 1009.3
20260507212603 16 73 4.8 22.5 0.00 0.10 0.10 37 1009.3
20260507212103 16 17 8.0 22.5 0.00 0.10 0.10 38 1009.2
20260507211603 16 17 8.0 14.5 0.00 0.10 0.10 38 1009.2
20260507211103 16 43 8.0 20.9 0.00 0.10 0.10 36 1009.1
20260507205603 17 34 8.0 19.3 0.00 0.10 0.10 38 1009.0
20260507205104 16 51 6.4 16.1 0.00 0.10 0.10 37 1008.9
20260507203605 17 338 11.3 24.1 0.00 0.10 0.10 35 1008.9
20260507203104 17 23 8.0 19.3 0.00 0.10 0.10 36 1008.9
20260507202604 17 63 4.8 19.3 0.00 0.10 0.10 37 1009.0
20260507202104 17 358 4.8 19.3 0.00 0.10 0.10 36 1009.0
20260507201603 17 344 8.0 24.1 0.00 0.10 0.10 37 1008.8
20260507200603 18 24 3.2 14.5 0.00 0.10 0.10 39 1009.0
20260507195604 17 41 9.7 19.3 0.00 0.10 0.10 39 1009.1
20260507195104 17 19 6.4 14.5 0.00 0.10 0.10 38 1009.1
20260507194604 17 318 8.0 14.5 0.00 0.13 0.10 37 1009.2
20260507194104 17 27 8.0 19.3 0.00 0.13 0.10 38 1009.3
20260507193103 18 16 4.8 9.7 0.00 0.13 0.10 40 1009.4
20260507191104 16 50 4.8 14.5 0.00 0.13 0.10 38 1009.5
20260507190604 17 325 9.7 19.3 0.00 0.13 0.10 38 1009.7
20260507190105 17 354 8.0 16.1 0.00 0.13 0.10 40 1009.8
20260507185103 17 4 9.7 27.4 0.00 0.13 0.10 39 1009.8
20260507184103 16 251 3.2 19.3 0.00 0.13 0.10 39 1010.0
20260507183103 17 340 9.7 19.3 0.00 0.13 0.10 37 1010.0
20260507182603 17 24 8.0 20.9 0.00 0.13 0.10 39 1010.2
20260507182104 16 337 3.2 12.9 0.00 0.13 0.10 42 1010.1
20260507181604 17 2 8.0 14.5 0.00 0.13 0.10 41 1010.3
20260507181104 17 42 8.0 19.3 0.00 0.13 0.10 40 1010.3
20260507180103 17 327 6.4 19.3 0.00 0.13 0.10 40 1010.3
20260507175604 17 356 6.4 19.3 0.00 0.15 0.10 40 1010.3
20260507175103 17 319 6.4 19.3 0.00 0.15 0.10 40 1010.4
20260507174104 16 49 8.0 19.3 0.00 0.18 0.10 41 1010.4
20260507172603 16 13 4.8 14.5 0.00 0.18 0.10 41 1010.6
20260507172104 16 5 4.8 19.3 0.00 0.18 0.10 40 1010.7
20260507171603 16 339 9.7 20.9 0.00 0.18 0.10 40 1010.8
20260507171104 16 347 6.4 19.3 0.00 0.18 0.10 44 1010.7
20260507170604 16 0 8.0 19.3 0.00 0.18 0.10 43 1010.8
20260507170104 16 354 6.4 19.3 0.00 0.18 0.10 40 1010.9
20260507165603 16 355 8.0 19.3 0.00 0.20 0.10 45 1010.8
20260507165104 16 310 8.0 19.3 0.00 0.20 0.10 40 1011.0
20260507164603 16 43 4.8 16.1 0.00 0.20 0.10 44 1011.1
20260507163603 15 28 4.8 19.3 0.00 0.20 0.10 46 1011.2
20260507163103 15 346 8.0 20.9 0.00 0.23 0.10 46 1011.3
20260507162604 15 358 6.4 16.1 0.00 0.23 0.10 44 1011.4
20260507162103 15 58 6.4 14.5 0.00 0.25 0.10 49 1011.4
20260507160604 15 23 6.4 14.5 0.00 0.28 0.10 46 1011.7
20260507160104 15 306 1.6 9.7 0.00 0.28 0.10 45 1011.7
20260507155603 15 29 4.8 11.3 0.00 0.28 0.10 44 1011.9
20260507155103 15 292 3.2 16.1 0.00 0.30 0.10 46 1012.0
20260507154604 15 329 6.4 12.9 0.00 0.30 0.10 43 1012.2
20260507154104 15 44 11.3 19.3 0.00 0.30 0.10 46 1012.2
20260507153604 15 62 4.8 16.1 0.00 0.30 0.10 48 1012.2
20260507153103 14 40 0.0 4.8 0.00 0.30 0.10 48 1012.2
20260507152604 14 25 6.4 14.5 0.00 0.30 0.10 48 1012.5
20260507152104 14 16 4.8 9.7 0.00 0.30 0.10 46 1012.4
20260507151603 14 344 6.4 19.3 0.00 0.30 0.10 46 1012.5
20260507151104 14 18 4.8 12.9 0.00 0.30 0.10 49 1012.4
20260507150105 13 58 11.3 22.5 0.00 0.30 0.10 46 1012.4
20260507145605 13 108 11.3 19.3 0.00 0.30 0.10 44 1012.4
20260507145106 14 144 8.0 20.9 0.00 0.30 0.10 45 1012.5
20260507144604 14 87 8.0 12.9 0.00 0.30 0.10 49 1012.5
20260507144105 13 313 3.2 4.8 0.00 0.30 0.10 47 1012.5
20260507143605 13 75 3.2 12.9 0.00 0.30 0.10 46 1012.6
20260507143104 13 313 6.4 11.3 0.00 0.30 0.10 47 1012.7
20260507142105 13 58 8.0 19.3 0.00 0.30 0.10 46 1012.7
20260507141605 13 39 4.8 19.3 0.00 0.30 0.10 45 1012.7
20260507140106 13 357 9.7 16.1 0.00 0.30 0.10 46 1013.0
20260507135105 12 60 9.7 19.3 0.00 0.30 0.10 46 1012.9
20260507134605 12 68 9.7 20.9 0.00 0.30 0.10 48 1012.9
20260507134106 12 69 9.7 24.1 0.00 0.30 0.10 48 1013.0
20260507133605 12 25 11.3 25.7 0.00 0.30 0.10 46 1013.0
20260507133105 12 52 9.7 20.9 0.00 0.30 0.10 48 1012.8
20260507132606 12 73 4.8 27.4 0.00 0.30 0.10 50 1012.8
20260507132105 12 33 3.2 12.9 0.00 0.30 0.10 54 1012.9
20260507131605 12 35 3.2 12.9 0.00 0.30 0.10 57 1012.8
20260507131105 12 38 3.2 14.5 0.00 0.30 0.10 61 1012.8
20260507130606 12 122 8.0 12.9 0.00 0.30 0.10 61 1012.7
20260507130105 12 358 1.6 12.9 0.00 0.30 0.10 65 1012.6
20260507125604 11 10 3.2 12.9 0.00 0.30 0.10 66 1012.6
20260507125106 11 70 1.6 12.9 0.00 0.30 0.10 67 1012.5
20260507124605 11 77 8.0 14.5 0.00 0.30 0.10 68 1012.5
20260507123605 11 73 9.7 19.3 0.00 0.30 0.10 70 1012.4
20260507123106 11 90 8.0 19.3 0.00 0.30 0.10 72 1012.4
20260507122605 10 63 9.7 19.3 0.00 0.30 0.10 74 1012.4
20260507121605 10 107 9.7 19.3 0.00 0.30 0.10 80 1012.4
20260507121105 10 71 8.0 19.3 0.00 0.30 0.10 85 1012.4
20260507120606 9 1 3.2 11.3 0.00 0.30 0.10 87 1012.3
20260507120104 9 48 0.0 3.2 0.00 0.30 0.10 87 1012.4
20260507115604 9 51 0.0 1.6 0.00 0.30 0.10 88 1012.4
20260507114604 10 25 0.0 3.2 0.00 0.30 0.10 89 1012.3
20260507114105 10 47 3.2 11.3 0.00 0.30 0.10 90 1012.2
20260507113605 10 356 1.6 4.8 0.00 0.30 0.10 90 1012.1
20260507113105 9 358 0.0 4.8 0.00 0.30 0.10 91 1012.1
20260507112604 9 3 0.0 0.0 0.00 0.30 0.10 91 1012.1
20260507112105 9 3 0.0 0.0 0.00 0.30 0.10 91 1012.2
20260507111606 9 3 0.0 0.0 0.00 0.30 0.10 91 1012.1
20260507111104 8 3 0.0 3.2 0.00 0.30 0.10 91 1012.0
20260507110605 8 0 0.0 3.2 0.00 0.30 0.10 91 1011.9
20260507110105 8 359 0.0 1.6 0.00 0.30 0.10 91 1012.0
20260507105609 8 359 0.0 1.6 0.00 0.30 0.10 92 1011.8
20260507105105 8 359 1.6 3.2 0.00 0.30 0.10 92 1011.6
20260507104606 8 359 0.0 3.2 0.00 0.30 0.10 92 1011.4
20260507104106 8 359 1.6 3.2 0.00 0.30 0.10 92 1011.5
20260507103604 8 359 0.0 3.2 0.00 0.30 0.10 92 1011.3
20260507103104 8 359 1.6 3.2 0.00 0.30 0.10 91 1011.2
20260507102606 8 359 0.0 3.2 0.00 0.30 0.10 91 1011.2
20260507102105 8 359 0.0 1.6 0.00 0.30 0.10 91 1011.2
20260507101605 8 359 0.0 0.0 0.00 0.30 0.10 91 1011.2
20260507100605 8 359 0.0 0.0 0.00 0.30 0.10 91 1011.0
20260507100105 8 359 0.0 0.0 0.00 0.30 0.10 91 1010.9
20260507095105 8 359 0.0 0.0 0.00 0.30 0.10 91 1010.9
20260507094605 8 359 0.0 0.0 0.00 0.30 0.10 91 1010.7
20260507094104 8 359 0.0 4.8 0.00 0.30 0.10 91 1010.7
20260507093605 8 359 1.6 3.2 0.00 0.30 0.10 90 1010.7
20260507093106 8 359 1.6 4.8 0.00 0.30 0.10 90 1010.6
20260507092606 8 359 0.0 3.2 0.00 0.30 0.10 90 1010.6
20260507092106 8 359 0.0 3.2 0.00 0.30 0.10 90 1010.9
20260507091606 8 359 0.0 0.0 0.00 0.30 0.10 90 1010.8
20260507090105 8 359 0.0 3.2 0.00 0.30 0.10 90 1010.9
20260507085605 9 359 0.0 4.8 0.00 0.30 0.10 90 1010.8
20260507085105 9 359 1.6 4.8 0.00 0.30 0.10 90 1010.8
20260507084106 9 359 1.6 4.8 0.03 0.30 0.10 90 1010.6
20260507083105 9 3 1.6 9.7 0.03 0.30 0.10 91 1010.8
20260507082605 9 0 3.2 4.8 0.03 0.30 0.10 91 1010.7
20260507082105 9 355 1.6 4.8 0.03 0.30 0.10 91 1011.0
20260507081604 9 318 1.6 4.8 0.03 0.30 0.10 91 1011.0
20260507081105 9 315 0.0 4.8 0.03 0.30 0.10 91 1011.1
20260507080604 9 338 3.2 8.0 0.03 0.30 0.10 91 1010.9
20260507080105 10 345 3.2 4.8 0.03 0.30 0.10 91 1011.0
20260507075605 10 313 1.6 4.8 0.05 0.30 0.10 91 1010.9
20260507075106 10 311 1.6 4.8 0.05 0.30 0.10 91 1010.9
20260507074604 10 290 3.2 4.8 0.05 0.30 0.10 91 1011.2
20260507073105 10 326 0.0 4.8 0.03 0.28 0.08 91 1011.1
20260507072105 10 3 0.0 3.2 0.03 0.28 0.08 91 1011.2
20260507071604 10 3 1.6 3.2 0.05 0.28 0.08 91 1011.1
20260507071105 10 323 0.0 4.8 0.05 0.28 0.08 90 1011.3
20260507070605 10 319 0.0 9.7 0.05 0.28 0.08 90 1011.3
20260507070104 10 305 0.0 4.8 0.05 0.28 0.08 90 1011.3
20260507065604 10 304 1.6 4.8 0.03 0.25 0.05 90 1011.4
20260507064606 11 299 0.0 1.6 0.05 0.25 0.05 89 1010.9
20260507063604 11 299 0.0 1.6 0.05 0.25 0.05 89 1010.8
20260507063105 11 299 3.2 4.8 0.05 0.25 0.05 88 1011.0
20260507062605 11 297 3.2 4.8 0.05 0.25 0.05 88 1010.8
20260507062104 11 314 0.0 1.6 0.05 0.25 0.05 87 1010.5
20260507061605 11 314 0.0 0.0 0.03 0.23 0.03 87 1010.7
20260507061105 11 314 0.0 3.2 0.03 0.23 0.03 87 1010.6
20260507060605 11 314 1.6 3.2 0.03 0.23 0.03 86 1010.6
20260507060104 11 314 0.0 3.2 0.03 0.23 0.03 86 1010.5
20260507055604 11 314 1.6 3.2 0.03 0.23 0.03 85 1010.4
20260507055106 11 314 1.6 3.2 0.03 0.23 0.03 84 1010.4
20260507054606 11 344 0.0 0.0 0.00 0.20 0.00 84 1010.0
20260507054106 11 336 0.0 0.0 0.00 0.20 0.00 84 1010.1
20260507053105 11 336 0.0 0.0 0.00 0.20 0.00 83 1010.0
20260507051104 12 321 1.6 3.2 0.00 0.20 0.00 82 1010.1
20260507050105 12 336 1.6 4.8 0.00 0.20 0.00 82 1010.4
20260507045606 12 339 1.6 4.8 0.00 0.20 0.00 82 1010.6
20260507045104 12 339 1.6 4.8 0.00 0.20 0.00 82 1010.8
20260507043604 12 349 0.0 0.0 0.00 0.20 0.00 82 1010.8
20260507043106 12 349 0.0 0.0 0.00 0.20 0.00 81 1010.8
20260507042605 12 349 1.6 4.8 0.00 0.20 0.00 81 1010.8
20260507042104 12 347 0.0 0.0 0.00 0.20 0.00 81 1010.5
20260507041605 12 347 0.0 1.6 0.00 0.20 0.00 81 1010.4
20260507041106 12 347 0.0 1.6 0.00 0.20 0.00 81 1010.6
20260507040605 12 347 1.6 4.8 0.00 0.20 0.00 81 1010.8
20260507040106 12 348 0.0 4.8 0.00 0.20 0.00 81 1010.8
20260507035605 12 336 1.6 4.8 0.00 0.20 0.20 81 1010.8
20260507035105 12 336 3.2 9.7 0.00 0.20 0.20 81 1010.6
20260507034606 12 355 0.0 1.6 0.00 0.20 0.20 81 1010.7
20260507034106 12 353 0.0 8.0 0.00 0.20 0.20 81 1010.5
20260507033105 12 18 1.6 4.8 0.00 0.20 0.20 81 1010.4
20260507032605 12 358 1.6 4.8 0.00 0.20 0.20 81 1010.3
20260507032105 12 5 3.2 4.8 0.00 0.20 0.20 81 1010.2
20260507031605 12 35 1.6 4.8 0.00 0.20 0.20 81 1010.4
20260507031106 12 349 1.6 8.0 0.00 0.20 0.20 81 1010.4
20260507030607 12 14 0.0 0.0 0.00 0.20 0.20 81 1010.6
20260507030105 12 14 0.0 3.2 0.00 0.20 0.20 81 1010.7
20260507025605 12 14 0.0 4.8 0.00 0.20 0.20 81 1010.8
20260507025104 12 12 1.6 4.8 0.00 0.20 0.20 80 1010.7
20260507024605 13 15 4.8 12.9 0.00 0.20 0.20 81 1010.7
20260507024106 13 71 3.2 14.5 0.00 0.20 0.20 81 1010.7
20260507023605 13 3 6.4 14.5 0.00 0.20 0.20 82 1010.7
20260507022604 13 345 3.2 19.3 0.00 0.20 0.20 84 1010.7
20260507022105 13 294 3.2 19.3 0.00 0.20 0.20 84 1010.6
20260507021605 13 340 9.7 16.1 0.00 0.20 0.20 85 1010.4
20260507021105 14 292 8.0 14.5 0.00 0.20 0.20 85 1010.3
20260507020606 14 305 4.8 12.9 0.00 0.20 0.20 85 1010.2
20260507020105 14 317 4.8 9.7 0.00 0.20 0.20 85 1010.1
20260507015605 14 341 3.2 4.8 0.00 0.20 0.20 85 1010.1
20260507015105 14 309 3.2 8.0 0.00 0.20 0.20 85 1010.1